Nenana, AK

12:17 PM AKST en Diciembre 18, 2018 (GMT -0900)
Nenana Municipal

Tiempo Historia de PANN - Diciembre, 2018

Change the Weather History Date:

Jueves, Diciembre 6, 2018

  Actual Average Record
Temperature  
Temperatura media 27 ° F -  
Temperatura máxima 37 ° F 0 ° F 51 ° F (2017)
Temperatura mínima 17 ° F -16 ° F -29 ° F (2012)
Degree Days  
Grados día de calefacción 38    
Moisture  
Punto de rocío 17 ° F    
Average Humidity 72    
Maximum Humidity 95    
Minimum Humidity 53    
Precipitación  
Precipitación 0.00 pul - - ()
Presión al nivel del mar  
Presión al nivel del mar 29.64 pul    
Viento  
Velocidad del viento 5 mph (ENE)    
Velocidad máxima del viento 14 mph    
Max Gust Speed -    
Visibilidad 10 Millas    
Eventos      
Averages and records for this station are not official NWS values.
T = Trace of Precipitation, MM = Missing Value Source: NWS Daily Summary

Daily Weather History Graph

Daily Weather History Graph

Search for Another Location

Airport or City:

Astronomía

Dec. 06, 2018 Salida Puesta
Hora real 10:34 AM AKST 3:00 PM AKST
Crepúsculo civil 9:17 AM AKST 4:17 PM AKST
Crepúsculo náutico 8:08 AM AKST 5:25 PM AKST
Crepúsculo astronómico 7:08 AM AKST 6:25 PM AKST
Luna 9:14 AM AKST (12/6) 3:35 PM AKST (12/6)
Horas de luz 6h 59m
Horas de luz
4h 26m
Creciente menguante, 0% of the Moon is Illuminated
Dic 6
Creciente menguante
Dic 6
Nueva
Dic 15
Cuarto creciente
Dic 22
Luna llena
Dic 29
Cuarto menguante

Hourly Weather History & Observations

Hora (AKST) Temp. Vientos helados Punto de rocío Humedad Presión Visibilidad Wind Dir Velocidad del viento Velocidad de ráfagas Precip Eventos Condiciones
12:53 AM 21.9 ° F - 17.1 ° F 82% 29.68 pul 10.0 mi Sin viento Sin viento - N/A   Despejado
1:53 AM 21.0 ° F 16.2 ° F 17.1 ° F 85% 29.67 pul 10.0 mi ESE 3.5 mph - N/A   Nublado
2:53 AM 21.9 ° F 15.7 ° F 17.1 ° F 82% 29.66 pul 10.0 mi ESE 4.6 mph - N/A   Nublado
3:53 AM 18.0 ° F - 15.1 ° F 88% 29.65 pul 10.0 mi Sin viento Sin viento - N/A   Muy nublado
4:53 AM 25.0 ° F 13.6 ° F 18.0 ° F 75% 29.63 pul 10.0 mi Este 12.7 mph - N/A   Nublado
5:53 AM 26.1 ° F 18.4 ° F 18.0 ° F 71% 29.61 pul 10.0 mi ENE 6.9 mph - N/A   Nublado
6:53 AM 26.1 ° F 21.9 ° F 17.1 ° F 69% 29.60 pul 10.0 mi NE 3.5 mph - N/A   Despejado
8:53 AM 27.0 ° F 20.5 ° F 17.1 ° F 66% 29.58 pul 10.0 mi NE 5.8 mph - N/A   Despejado
9:53 AM 17.1 ° F - 12.9 ° F 84% 29.59 pul 10.0 mi Sin viento Sin viento - N/A   Muy nublado
10:53 AM 27.0 ° F 18.0 ° F 17.1 ° F 66% 29.58 pul 10.0 mi ENE 9.2 mph - N/A   Muy nublado
11:53 AM 26.1 ° F 16.8 ° F 16.0 ° F 66% 29.58 pul 10.0 mi ENE 9.2 mph - N/A   Nublado
12:53 PM 25.0 ° F 17.1 ° F 15.1 ° F 66% 29.58 pul 10.0 mi ENE 6.9 mph - N/A   Despejado
1:53 PM 24.1 ° F 16.0 ° F 15.1 ° F 69% 29.57 pul 10.0 mi ENE 6.9 mph - N/A   Despejado
2:53 PM 24.1 ° F 16.0 ° F 15.1 ° F 69% 29.56 pul 10.0 mi ENE 6.9 mph - N/A   Despejado
3:53 PM 24.1 ° F 15.2 ° F 15.1 ° F 69% 29.55 pul 10.0 mi ENE 8.1 mph - N/A   Despejado
4:53 PM 25.0 ° F 15.5 ° F 15.1 ° F 66% 29.53 pul 10.0 mi ENE 9.2 mph - N/A   Parcialmente nublado
5:53 PM 26.1 ° F 15.6 ° F 16.0 ° F 66% 29.52 pul 10.0 mi ENE 11.5 mph - N/A   Muy nublado
6:53 PM 27.0 ° F 15.6 ° F 16.0 ° F 63% 29.51 pul 10.0 mi ENE 13.8 mph - N/A   Nublado
7:53 PM 27.0 ° F 16.1 ° F 17.1 ° F 66% 29.49 pul 10.0 mi ENE 12.7 mph - N/A   Nublado
8:53 PM 28.0 ° F 18.1 ° F 17.1 ° F 63% 29.49 pul 10.0 mi Este 11.5 mph - N/A   Nublado
10:53 PM 28.0 ° F 20.0 ° F 17.1 ° F 63% 29.46 pul 10.0 mi ENE 8.1 mph - N/A   Nublado
11:53 PM 28.0 ° F 21.7 ° F 18.0 ° F 66% 29.45 pul 10.0 mi ENE 5.8 mph - N/A   Nublado